Weather History for Morristown, NJ

Change the Weather History Date:

Sunday, April 29, 2012

  Actual Average Record
Temperature  
Mean Temperature 48 °F -  
Max Temperature 62 °F 65 °F 91 °F (1990)
Min Temperature 33 °F 42 °F 22 °F (1934)
Degree Days  
Heating Degree Days 18    
Moisture  
Dew Point 25 °F    
Average Humidity 53    
Maximum Humidity 100    
Minimum Humidity 14    
Precipitation  
Precipitation 0.00 in - - ()
Sea Level Pressure  
Sea Level Pressure 30.15 in    
Wind  
Wind Speed 3 mph (NNW)    
Max Wind Speed 15 mph    
Max Gust Speed 29 mph    
Visibility 10 miles    
Events      
Averages and records for this station are not official NWS values.
T = Trace of Precipitation, MM = Missing Value Source: NWS Daily Summary

Daily Weather History Graph

Daily Weather History Graph

Search for Another Location

Airport:

Trip Planner

Search our weather history database for the weather conditions in past years. The results will help you decide how hot, cold, wet, or windy it might be!

Date:

Astronomy

Apr. 29, 2012 Rise Set
Actual Time 5:58 AM EDT 7:52 PM EDT
Civil Twilight 5:28 AM EDT 8:22 PM EDT
Nautical Twilight 4:52 AM EDT 8:58 PM EDT
Astronomical Twilight 4:13 AM EDT 9:37 PM EDT
Moon 12:39 PM EDT (4/29) 1:49 AM EDT (4/29)
Length of Visible Light 14h 53m
Length of Day
13h 54m
First Quarter, 53% of the Moon is Illuminated
Apr 29
First Quarter
May 5
Full
May 12
Last Quarter
May 20
New
May 28
First Quarter

Hourly Weather History & Observations

Time (EDT) Temp. Windchill Dew Point Humidity Pressure Visibility Wind Dir Wind Speed Gust Speed Precip Events Conditions
12:15 AM 46.4 °F - 33.8 °F 62% 30.13 in 10.0 mi Calm Calm - N/A   Clear
12:35 AM 44.6 °F - 37.4 °F 76% 30.13 in 10.0 mi Calm Calm - N/A   Clear
12:55 AM 44.6 °F - 37.4 °F 76% 30.13 in 10.0 mi Calm Calm - N/A   Clear
1:15 AM 44.6 °F 43.1 °F 37.4 °F 76% 30.13 in 10.0 mi SSW 3.5 mph - N/A   Clear
1:35 AM 42.8 °F - 35.6 °F 76% 30.12 in 10.0 mi Calm Calm - N/A   Clear
1:55 AM 41.0 °F - 35.6 °F 81% 30.13 in 10.0 mi Calm Calm - N/A   Clear
2:15 AM 39.2 °F - 35.6 °F 87% 30.12 in 10.0 mi Calm Calm - N/A   Clear
2:35 AM 37.4 °F - 35.6 °F 93% 30.12 in 10.0 mi Calm Calm - N/A   Clear
2:55 AM 37.4 °F - 35.6 °F 93% 30.12 in 10.0 mi Calm Calm - N/A   Clear
3:15 AM 35.6 °F - 33.8 °F 93% 30.13 in 10.0 mi Calm Calm - N/A   Clear
3:35 AM 35.6 °F - 35.6 °F 100% 30.13 in 10.0 mi Calm Calm - N/A   Clear
3:55 AM 35.6 °F - 33.8 °F 93% 30.13 in 10.0 mi Calm Calm - N/A   Clear
4:15 AM 35.6 °F - 33.8 °F 93% 30.13 in 10.0 mi Calm Calm - N/A   Clear
4:35 AM 33.8 °F - 33.8 °F 100% 30.13 in 10.0 mi Calm Calm - N/A   Clear
4:55 AM 37.4 °F - 32.0 °F 81% 30.14 in 10.0 mi Calm Calm - N/A   Clear
5:15 AM 39.2 °F - 28.4 °F 65% 30.14 in 10.0 mi Calm Calm - N/A   Clear
5:35 AM 41.0 °F 37.1 °F 26.6 °F 57% 30.15 in 10.0 mi NW 5.8 mph - N/A   Clear
5:55 AM 41.0 °F 37.1 °F 24.8 °F 53% 30.15 in 10.0 mi NW 5.8 mph - N/A   Clear
6:15 AM 41.0 °F 36.4 °F 24.8 °F 53% 30.17 in 10.0 mi NW 6.9 mph - N/A   Clear
6:35 AM 41.0 °F 35.8 °F 24.8 °F 53% 30.17 in 10.0 mi NW 8.1 mph - N/A   Clear
7:45 AM 46.4 °F 41.9 °F 19.4 °F 34% 30.20 in 20.0 mi North 9.2 mph 17.3 mph N/A   Clear
8:45 AM 48.2 °F - 17.6 °F 30% 30.20 in 20.0 mi North 12.7 mph 17.3 mph N/A   Clear
9:45 AM 51.8 °F - 17.6 °F 26% 30.20 in 10.0 mi NW 6.9 mph - N/A   Clear
10:45 AM 55.4 °F - 19.4 °F 25% 30.20 in 10.0 mi WNW 10.4 mph 16.1 mph N/A   Clear
11:45 AM 57.2 °F - 15.8 °F 20% 30.18 in 10.0 mi NW 6.9 mph - N/A   Clear
12:45 PM 59.0 °F - 12.2 °F 16% 30.13 in 10.0 mi NW 4.6 mph 19.6 mph N/A   Clear
1:45 PM 60.8 °F - 12.2 °F 15% 30.11 in 10.0 mi WNW 13.8 mph 24.2 mph N/A   Clear
2:45 PM 62.6 °F - 14.0 °F 15% 30.10 in 10.0 mi NNW 6.9 mph 21.9 mph N/A   Clear
3:45 PM 62.6 °F - 12.2 °F 14% 30.03 in 10.0 mi NNW 15.0 mph 28.8 mph N/A   Clear
5:45 PM 62.6 °F - 15.8 °F 16% 30.09 in 10.0 mi North 10.4 mph 25.3 mph N/A   Clear
6:45 PM 60.8 °F - 12.2 °F 15% 30.11 in 10.0 mi North 10.4 mph 25.3 mph N/A   Clear
7:45 PM 57.2 °F - 12.2 °F 17% 30.14 in 10.0 mi North 9.2 mph 21.9 mph N/A   Clear
8:45 PM 55.4 °F - 15.8 °F 21% 30.18 in 10.0 mi NNE 8.1 mph 13.8 mph N/A   Clear
10:55 PM 50.0 °F - 19.4 °F 30% 30.25 in 10.0 mi North 3.5 mph - N/A   Clear
11:15 PM 48.2 °F - 19.4 °F 32% 30.25 in 10.0 mi North 4.6 mph - N/A   Clear
11:35 PM 46.4 °F 44.3 °F 21.2 °F 37% 30.26 in 10.0 mi North 4.6 mph - N/A   Clear
11:55 PM 46.4 °F 45.2 °F 21.2 °F 37% 30.26 in 10.0 mi North 3.5 mph - N/A   Clear